Tracking 19219 objects as of 21-Jul-2018
HD Live streaming from Space Station
objects crossing your sky now

COSMOS 1486

Track COSMOS 1486 now!
10-day predictions
COSMOS 1486 is classified as:


NORAD ID: 14240
Int'l Code: 1983-079A
Perigee: 775.8 km
Apogee: 796.2 km
Inclination: 74.1 °
Period: 100.4 minutes
Semi major axis: 7156 km
RCS: 2.07 m2 (large)
Launch date: August 3, 1983
Source: Commonwealth of Independent States (former USSR) (CIS)
Launch site: PLESETSK MISSILE AND SPACE COMPLEX (PKMTR)
aabbcc
Your satellite tracking list
Your tracking list is empty




NASA's NSSDC Master Catalog

Two Line Element Set (TLE):
1 14240U 83079A   18201.80267625  .00000002  00000-0  10122-4 0  9998
2 14240  74.0583 290.8893 0014282 210.3249 284.1358 14.33865600827944
Source of the keplerian elements: AFSPC